DL8FX-6 Weather Reports


time (UTC)temp
F
wind
direction
speed
knots
gust
knots
rain 1hr
in
rain 24hr
in
rain mn
in
humidity
%
barometer
mb
20260507172038 52 0.0 0.0 0.00 0.00 0.00 78 1014.2
20260507171035 52 0.0 0.0 0.00 0.00 0.00 76 1014.3
20260507170031 52 0.0 0.0 0.00 0.00 0.00 74 1014.2
20260507165027 53 0.0 0.0 0.00 0.00 0.00 73 1014.0
20260507164022 53 0.0 1.7 0.00 0.00 0.00 73 1013.9
20260507163019 53 0.0 0.0 0.00 0.00 0.00 73 1013.8
20260507162114 53 0.0 0.0 0.00 0.00 0.00 73 1013.8
20260507161111 53 0.0 0.0 0.00 0.00 0.00 72 1013.8
20260507160106 54 0.0 0.0 0.00 0.00 0.00 72 1013.7
20260507155103 54 0.0 0.0 0.00 0.00 0.00 71 1013.7
20260507154118 54 0.0 0.0 0.00 0.00 0.00 68 1013.7
20260507153114 55 0.0 0.0 0.00 0.00 0.00 63 1013.6
20260507152050 56 0.0 0.0 0.00 0.00 0.00 65 1013.5
20260507151046 56 0.0 0.0 0.00 0.00 0.00 62 1013.4
20260507150042 56 68 0.9 4.3 0.00 0.00 0.00 62 1013.3
20260507145038 56 0.0 0.0 0.00 0.00 0.00 64 1013.3
20260507144034 56 0.0 0.0 0.00 0.00 0.00 65 1013.3
20260507143031 56 0.0 0.9 0.00 0.00 0.00 65 1013.3
20260507142047 56 0.0 0.0 0.00 0.00 0.00 69 1013.2
20260507141023 55 0.0 0.0 0.00 0.00 0.00 69 1013.2
20260507140019 55 0.0 0.0 0.00 0.00 0.00 68 1013.1
20260507135015 55 0.0 0.0 0.00 0.00 0.00 68 1013.2
20260507134111 55 0.0 0.0 0.00 0.00 0.00 70 1013.1
20260507133107 55 0.0 0.0 0.00 0.00 0.00 70 1013.1
20260507132104 55 0.0 0.0 0.00 0.00 0.00 67 1013.0
20260507131100 55 0.0 0.0 0.00 0.00 0.00 66 1013.0
20260507130055 55 42 0.9 3.5 0.00 0.00 0.00 66 1013.0
20260507125051 55 0.0 0.0 0.00 0.00 0.00 69 1012.8
20260507124047 54 0.0 0.0 0.00 0.00 0.00 67 1012.7
20260507123043 55 45 0.9 7.0 0.00 0.00 0.00 64 1012.7
20260507122040 56 0.0 0.0 0.00 0.00 0.00 66 1012.7
20260507121035 55 0.0 0.0 0.00 0.00 0.00 66 1012.7
20260507120031 54 0.0 0.0 0.00 0.00 0.00 66 1012.6
20260507115027 55 0.0 0.9 0.00 0.00 0.00 66 1012.6
20260507114023 54 45 0.0 2.6 0.00 0.00 0.00 69 1012.5
20260507113019 54 0 0.9 4.3 0.00 0.00 0.00 70 1012.6
20260507112116 54 0 0.0 3.5 0.00 0.00 0.00 71 1012.6
20260507111111 54 0.0 0.0 0.00 0.00 0.00 71 1012.6
20260507110107 53 0.0 0.0 0.00 0.00 0.00 72 1012.5
20260507105103 52 40 1.7 7.0 0.00 0.00 0.00 72 1012.4
20260507104059 51 45 0.0 3.5 0.00 0.00 0.00 72 1012.5
20260507103054 51 0 0.9 5.2 0.00 0.00 0.00 74 1012.5
20260507102050 51 45 0.9 3.5 0.00 0.00 0.00 73 1012.4
20260507101046 51 0 1.7 6.1 0.00 0.00 0.00 75 1012.4
20260507100042 50 90 0.9 6.1 0.00 0.00 0.00 78 1012.2
20260507095038 49 0.0 0.9 0.00 0.00 0.00 80 1012.2
20260507094033 49 0.0 0.0 0.00 0.01 0.00 81 1012.2
20260507093029 49 0.0 0.0 0.00 0.01 0.00 81 1012.0
20260507092025 49 54 0.9 4.3 0.00 0.02 0.00 82 1011.9
20260507091022 49 0.0 0.0 0.00 0.05 0.00 82 1011.8
20260507090018 48 0.0 0.0 0.00 0.06 0.00 82 1011.6
20260507085115 48 338 0.9 7.0 0.00 0.07 0.00 82 1011.5
20260507084131 48 0.0 0.0 0.00 0.08 0.00 81 1011.4
20260507083107 48 0.0 0.0 0.00 0.09 0.00 81 1011.3
20260507082104 49 0.0 0.0 0.00 0.11 0.00 80 1011.1
20260507081059 49 0.0 0.0 0.00 0.11 0.00 79 1011.1
20260507080055 49 0.0 0.0 0.00 0.12 0.00 78 1011.0
20260507075112 49 0 0.0 1.7 0.00 0.14 0.00 79 1010.9
20260507074047 48 0.0 0.0 0.00 0.15 0.00 79 1010.8
20260507073043 48 0.0 0.0 0.00 0.17 0.00 79 1010.6
20260507072039 48 90 0.9 3.5 0.00 0.19 0.00 80 1010.5
20260507071035 48 68 0.0 3.5 0.00 0.21 0.00 80 1010.5
20260507070031 48 31 1.7 7.0 0.00 0.22 0.00 81 1010.5
20260507065027 48 0.0 1.7 0.00 0.24 0.00 80 1010.4
20260507064043 48 0.0 0.0 0.00 0.24 0.00 81 1010.4
20260507063040 47 45 1.7 9.6 0.00 0.24 0.00 82 1010.2
20260507062016 47 0.0 0.0 0.00 0.24 0.00 82 1010.1
20260507061112 47 0.0 0.0 0.00 0.25 0.00 82 1010.0
20260507060148 47 0.0 0.0 0.00 0.25 0.00 82 1010.0
20260507055104 47 12 1.7 7.0 0.00 0.25 0.00 83 1009.9
20260507054100 47 0 0.0 1.7 0.00 0.25 0.00 84 1009.7
20260507053116 46 0 0.9 3.5 0.00 0.26 0.00 84 1009.6
20260507052052 46 0.0 0.0 0.00 0.26 0.00 84 1009.6
20260507051108 46 0.0 0.0 0.00 0.26 0.00 84 1009.5
20260507050044 46 0.0 0.0 0.00 0.26 0.00 84 1009.5
20260507045040 46 0.0 0.0 0.00 0.27 0.00 84 1009.2
20260507044035 46 0.0 0.0 0.00 0.28 0.00 84 1009.2
20260507043032 46 0.0 0.0 0.00 0.28 0.00 83 1009.2
20260507042028 46 356 3.5 6.1 0.00 0.28 0.00 84 1009.2
20260507041024 46 0.0 1.7 0.00 0.28 0.00 84 1009.0
20260507040041 46 0.0 0.9 0.00 0.30 0.00 85 1008.7
20260507035017 46 23 0.9 2.6 0.00 0.31 0.00 85 1008.7
20260507034113 46 45 0.0 2.6 0.00 0.31 0.00 86 1008.6
20260507033129 46 315 0.9 3.5 0.00 0.32 0.00 86 1008.6
20260507032126 46 120 1.7 4.3 0.00 0.33 0.00 86 1008.5
20260507031102 46 0.0 0.0 0.00 0.35 0.00 86 1008.5
20260507030058 46 0.0 0.0 0.00 0.38 0.00 86 1008.5
20260507025054 46 0.0 2.6 0.00 0.40 0.00 86 1008.4
20260507024111 46 0 0.9 6.1 0.00 0.41 0.00 86 1008.4
20260507023046 46 0.0 0.9 0.00 0.43 0.00 86 1008.4
20260507022042 46 0 1.7 6.1 0.00 0.44 0.00 87 1008.3
20260507021038 46 90 0.0 1.7 0.00 0.46 0.00 87 1008.3
20260507020034 46 289 0.9 3.5 0.00 0.47 0.00 88 1008.3
20260507015130 46 90 0.0 3.5 0.00 0.48 0.00 88 1008.4
20260507014026 46 0.0 0.9 0.00 0.50 0.00 88 1008.3
20260507013042 46 0.0 0.0 0.00 0.51 0.00 88 1008.1
20260507012017 46 0.0 0.0 0.00 0.52 0.00 88 1008.2
20260507011112 46 0.0 0.9 0.00 0.52 0.00 88 1008.1
20260507010129 46 0.0 0.0 0.00 0.53 0.00 88 1007.9
20260507005105 46 0.0 0.0 0.00 0.53 0.00 88 1007.8
20260507004102 46 0.0 0.0 0.00 0.53 0.00 88 1007.7
20260507003118 46 45 0.9 5.2 0.00 0.54 0.00 88 1007.6
20260507002053 46 0.0 0.0 0.00 0.54 0.00 88 1007.6
20260507001050 46 0.0 0.0 0.00 0.54 0.00 88 1007.6
20260507000046 46 0.0 0.0 0.00 0.54 0.00 88 1007.8
20260506235043 46 0.0 0.0 0.00 0.54 0.00 88 1007.7
20260506234038 46 0.0 0.0 0.00 0.54 0.00 88 1007.8
20260506233035 46 0.0 0.0 0.00 0.54 0.00 88 1007.8
20260506232051 47 315 1.7 7.0 0.00 0.54 0.00 89 1007.8
20260506231027 47 0.0 0.9 0.00 0.54 0.00 90 1007.5
20260506230022 48 135 0.0 3.5 0.00 0.54 0.00 90 1007.4
20260506225038 48 0.0 0.0 0.00 0.54 0.00 91 1007.3
20260506224135 48 0.0 0.0 0.00 0.54 0.00 91 1007.2
20260506223111 49 0.0 0.0 0.00 0.54 0.00 91 1007.2
20260506222107 49 0.0 0.0 0.00 0.54 0.00 92 1007.1
20260506221102 49 0.0 0.0 0.00 0.54 0.00 92 1007.1
20260506220119 50 0.0 0.0 0.00 0.54 0.00 93 1007.1
20260506215054 50 0 0.9 3.5 0.00 0.54 0.54 93 1007.0
20260506214050 50 0.0 0.0 0.00 0.54 0.54 94 1006.8
20260506213106 50 0.0 0.0 0.00 0.54 0.54 94 1006.8
20260506212041 51 0.0 0.0 0.00 0.54 0.54 94 1006.8
20260506211058 51 0.0 0.0 0.00 0.54 0.54 94 1006.7
20260506210033 51 0.0 0.0 0.00 0.54 0.54 94 1006.6
20260506205029 51 0.0 0.0 0.00 0.54 0.54 94 1006.6
20260506204025 51 0.0 0.0 0.00 0.54 0.54 94 1006.6
20260506203021 51 0.0 0.0 0.00 0.54 0.54 93 1006.6
20260506202018 51 0.0 0.0 0.00 0.54 0.54 93 1006.7
20260506201114 51 0.0 0.0 0.00 0.54 0.54 93 1006.6
20260506200110 51 0.0 0.0 0.00 0.54 0.54 93 1006.4
20260506195106 51 0.0 0.0 0.00 0.54 0.54 93 1006.3
20260506194102 51 0.0 0.0 0.00 0.54 0.54 92 1006.4
20260506193058 51 0.0 0.0 0.00 0.54 0.54 92 1006.2
20260506192054 52 0.0 0.0 0.00 0.54 0.54 92 1006.2
20260506191050 52 0.0 0.0 0.00 0.54 0.54 92 1006.0
20260506190046 52 0.0 0.0 0.00 0.54 0.54 91 1005.8
20260506185042 52 0.0 0.0 0.00 0.54 0.54 91 1005.7
20260506184038 52 0.0 0.0 0.00 0.54 0.54 90 1005.8
20260506183035 53 0.0 0.0 0.00 0.54 0.54 90 1005.6
20260506182031 53 0.0 0.0 0.00 0.54 0.54 90 1005.6
20260506181107 53 0.0 0.0 0.00 0.54 0.54 90 1005.4
20260506180023 53 0.0 0.0 0.00 0.54 0.54 90 1005.4
20260506175019 54 0.0 0.0 0.00 0.54 0.54 90 1005.3
20260506174115 54 0.0 0.0 0.00 0.54 0.54 90 1005.3
20260506173111 54 0.0 0.0 0.00 0.54 0.54 89 1005.5